Survival Gendringen 2013


Gendringen_(dag_3_NK-TSC,_Recr)
Recr-12 Heren

Overzicht uitslagen


Nr StartNr Punten Looptijd Hindern Naam Veteraan Woonplaats
1 441 1000.0 01:18:27 0 Siemen Keizer Langezwaag
2 445 997.2 01:19:51 0 Bart van Zelst Holten
3 417 982.27 01:27:19 0 Timo Pajic Terborg
4 504 978.97 01:28:58 0 Richard Klein goldewijk 50+ Lichtenvoorde
5 402 976.53 01:30:11 0 Luuk Bokdam Neede
6 405 973.37 01:31:46 0 Mark Huizinga 40+ Schiedam
7 453 968.8 01:34:03 0 Danny Ruwhof Aalten
8 514 967.23 01:34:50 0 Sander Hulshof Zieuwent
9 510 967.2 01:34:51 0 Pascal Swaalf Leidschendam
10 420 965.73 01:35:35 0 Jelmer Geerdink Winterswijk
11 533 964.9 01:36:00 0 Robin Voortman De kwakel
12 465 961.2 01:37:51 0 Luc Joosten Wageningen
13 540 960.37 01:38:16 0 Jh Oldenhave Arnhem
14 447 959.63 01:38:38 0 Wouter de Lange Amsterdam
15 490 958.5 01:39:12 0 Marco Rikxoort Nieuw vossemeer
16 437 956.13 01:40:23 0 David Menger Wageningen
17 508 955.87 01:40:31 0 Toine Buchner Molenhoek
18 493 955.1 01:40:54 0 Hugo van Waalwijk van doorn 40+ Schiedam
19 421 953.83 01:41:32 0 Joel Verhagen Aalsmeer
20 422 952.63 01:42:08 0 Erwin Koopstra Aalsmeer
21 415 952.4 01:42:15 0 Bram Janssen Andelst
22 479 948.63 01:44:08 0 Koen Wishaupt Den haag
23 515 946.13 01:45:23 0 Sander Schenk Lichtenvoorde
24 435 945.43 01:45:44 0 Casper Quist Wageningen
25 452 944.7 01:46:06 0 Leen Hubregtse Kapelle
26 450 943.77 01:46:34 0 Rob Wagenvoort 40+ Halle
27 549 938.4 01:49:15 0 Richard van der Mark 40+ Kaatsheuvel
28 475 936.6 01:50:09 0 Pascal van den Hoorn Barneveld
29 521 936.5 01:50:12 0 Timo Smeulders Harreveld
30 408 935.3 01:50:48 0 Antoon Scheffers 40+ Riel
31 499 929.57 01:53:40 0 Jeroen Waanders Arnhem
32 484 929.43 01:53:44 0 Mike van Kuijk Vlijmen
33 485 927.87 01:54:31 0 Dennis Smolders Vlijmen
34 462 926.47 01:55:13 0 Martin Nijhuis Groningen
35 451 926.2 01:55:21 0 Bart Becking Aalten
36 466 925.97 01:55:28 0 Cornelis de Kemp Amsterdam
37 539 925.77 01:55:34 0 Roel de Ruiter 40+ Bathmen
38 550 923.8 01:56:33 0 Peter Laagland -
39 522 915.13 02:00:53 0 Jan willem Schokkin Arnhem
40 529 914.63 02:01:08 0 Johan van Rijn De kwakel
41 530 913.67 02:01:37 0 Robert Bentsink Silvolde
42 439 912.27 02:02:19 0 Lennart van Galen Bovenkarspel
43 406 911.67 02:02:37 0 Marco Wassink 40+ Ulft
44 528 911.33 02:02:47 0 Eef Helmers Beltrum
45 501 908.2 02:04:21 0 Tim Burgers Didam
46 502 908.17 02:04:22 0 Ido Jansen Lemele
47 513 908.03 02:04:26 0 Niels Den Daas Uithoorn
48 468 906.53 02:05:11 0 Pascal Simmelink Haaksbergen
49 496 906.2 02:05:21 0 Stefan Lampaert Delft
50 418 905.37 02:05:46 0 Frank van Tienen 40+ Vlaardingen
51 520 903.63 02:06:38 0 Maurice Beerten 40+ Lichtenvoorde
52 503 901.73 02:07:35 0 Bas Tempert Lemele
53 416 901.7 02:07:36 0 Mile Pajic 50+ S'heerenberg
54 482 900.47 02:08:13 0 Maik Halfman Ruurlo
55 486 894.97 02:10:58 0 Robert Ruiter Hellendoorn
56 531 894.03 02:11:26 0 Arjen Firing Eibergen
57 518 893.63 02:11:38 0 Koen Verhoeven Oisterwijk
58 483 892.57 02:12:10 0 Chiel Karssenberg Neede
59 464 892.4 02:12:15 0 Aart-jan Boer Haarlem
60 494 888.6 02:14:09 0 Roy Grievink Aalten
61 429 888.43 02:14:14 0 Werner Kolkman 40+ Ruurlo
62 517 886.13 02:15:23 0 Bram van Grinsven Nederasselt
63 425 884.53 02:16:11 0 Pieter van der Post Maassluis
64 507 880.97 02:17:58 0 Ivo van Noord Leiden
65 498 880.33 02:18:17 0 Bart Waanders Neede
66 524 879.07 02:18:55 0 Bjorn Scharenborg Beltrum
67 516 878.13 02:19:23 0 Rob Cissen Zeeland
68 470 877.4 02:19:45 0 David Marcelis Rhenen
69 423 874.07 02:21:25 0 Patrick Gieling Duiven
70 512 872.47 02:22:13 0 Tristan Tiemens Leiden
71 427 871.27 02:22:49 0 Tom Jansen 40+ Deventer
72 446 869.53 02:23:41 0 Rick Zwemmer De goorn
73 444 869.17 02:23:52 0 Rick Timmer De goorn
74 430 867.93 02:24:29 0 Bas Mengerink Winterswijk
75 492 849.23 02:33:50 0 Alex Vrombaut 50+ Brugge
76 456 836.63 02:40:08 0 Nander Buiter Dordrecht
77 457 835.37 02:40:46 0 Cris Buiter Zwijndrecht
78 459 833.0 02:41:57 0 Aron van de Hurk Schiedam
79 458 826.97 02:44:58 0 Loek van de Voorde Den haag
80 455 806.33 02:55:17 0 J.c. de Nijs Dordrecht
81 523 776.07 03:10:25 0 Olaf van Dijk 40+ Dronten
82 527 664.23 02:06:20 1 Dirk de Graaf Kudelstaart
83 487 659.3 02:08:48 1 Floris van der Gulden Nijmegen
84 535 653.27 02:11:49 1 Bert Wanink 40+ Neede
85 448 652.43 02:12:14 1 Edward ten Brinke Enter
86 495 649.97 02:13:28 1 Robert Kok Varsselder
87 481 647.0 02:14:57 1 Rick Liebrand Groenlo
88 426 642.53 02:17:11 1 Jordy jonathan Castano koeleman Delft
89 538 637.5 02:19:42 1 Wim Rensink Aalten
90 511 635.17 02:20:52 1 Peter Mayringer 40+ Doetinchem
91 525 631.53 02:22:41 1 Niels Wolterink Vragender
92 428 624.27 02:26:19 1 Paul Jansen 50+ Deventer
93 409 623.33 02:26:47 1 Martens Rob Velsen noord
94 407 615.6 02:30:39 1 Rafael Pires 40+ Haarlem
95 497 613.27 02:31:49 1 Marc Taken Rietmolen
96 536 607.67 02:34:37 1 Andre Vlaswinkel Aalten
97 548 606.07 02:35:25 1 Thierry van den Boom Doetinchem
98 471 605.23 02:35:50 1 Fabian Van Baren Voorburg
99 534 600.23 02:38:20 1 Jeroen Schlechter Doetinchem
100 460 591.03 02:42:56 1 Tijmen Prins Zwijndrecht
101 434 580.27 02:48:19 1 Rutger Kroes Wagenigen
102 543 551.07 03:02:55 1 Michiel Goossenaerts Zoersel
103 542 550.13 03:03:23 1 Wessel van der Kolk Wierden
DNF 546 0.0 00:00:00 0 Eelke de Gelder Nieuwegein
DNF 544 0.0 00:00:00 0 Mathias Goossenaerts Zoersel
DNF 532 0.0 00:00:00 0 Marcel van Nistelrooij Apeldoorn
DNF 526 0.0 00:00:00 0 Geert Zweerink Aalten
DNF 519 0.0 00:00:00 0 Nurihan Akbasoglu 40+ Schiedam
DNF 509 0.0 00:00:00 0 Mike Wopereis Ulft
DNF 506 0.0 00:00:00 0 Tjeerd Breederveld Schiedam
DNF 500 0.0 00:00:00 0 Daan Heijliger 40+ Amsterdam
DNF 489 0.0 00:00:00 0 Sander van Rikxoort Rotterdam
DNF 488 0.0 00:00:00 0 Robert Linscheer Rotterdam
DNF 480 0.0 00:00:00 0 Jan willem Tenkink Winterswijk
DNF 476 0.0 00:00:00 0 Niels van de Kamp Barneveld
DNF 474 0.0 00:00:00 0 Marco Rohof 40+ Neede
DNF 473 0.0 00:00:00 0 Martijn Wolf Witteveen
DNF 469 0.0 00:00:00 0 Robert Mooij Hoofddorp
DNF 467 0.0 00:00:00 0 Jaring Veenstra Groningen
DNF 461 0.0 00:00:00 0 Sietse Barendregt Vlaardingen
DNF 449 0.0 00:00:00 0 Frank te Molder Nijverdal
DNF 442 0.0 00:00:00 0 Pawel Stawicki Tilburg
DNF 433 0.0 00:00:00 0 Raymond Lankreijer Baarn
DNF 432 0.0 00:00:00 0 Jarno Dusseldorp Lichtenvoorde
DNF 431 0.0 00:00:00 0 Daniel Raasing Zieuwent
DNF 424 0.0 00:00:00 0 Ricky De Haan Duivwn
DNF 419 0.0 00:00:00 0 Martijn te Biesebeek Nieuwegein
DNF 414 0.0 00:00:00 0 Paul Van Helden Amsterdam
DNF 413 0.0 00:00:00 0 Sam Broersen Bovenkarspel
DNF 412 0.0 00:00:00 0 Carlos Antón van wezel Amsterdam
DNF 411 0.0 00:00:00 0 Ric Brand Holten
DNF 410 0.0 00:00:00 0 Nick Rupert Neede
DNF 404 0.0 00:00:00 0 Arjan de Hoon Galder
DNF 401 0.0 00:00:00 0 Rik Smit Wijchen
DNF 547 0.0 00:00:00 1 Dimitri Delatin Brasschaat
DNF 463 0.0 00:00:00 1 Jochem Isselman Doetnchem
DNF 443 0.0 00:00:00 1 Maarten Laan Avenhorn
DNF 436 0.0 00:00:00 1 Coen Smiers Utrecht